カタログに戻る

GALILEO 23

2C9

運用中ナビゲーションMEO
NORAD 43566·PAYLOAD·🇪🇺 EU

打ち上げ Jul 25, 2018 から Guiana Space Centre

Loading…

次のパス (今後24時間)

TLE

最新Source: CelesTrak SupGP

元期: Sep 13, 2026, 23:59 UTC

1 43566C 18060C   26256.99979167  .00000000  00000+0  00000+0 0  2561
2 43566  57.1361 339.3875 0003528 273.2845  37.7070  1.70476559    15

AllMySatでGALILEO 23をリアルタイム追跡

Download on the App Store